Showing default

LEMUR 1, 40044

Orbit data source: Space-Track

LEMUR 1, 40044 is a payload satellite owned by NanoSatisfi (US) in SSO that was launched on Thu, 19 Jun 2014 UTC via a DNEPR launch vehicle from the Orenburg, Russia (OREN). Payload-class satellites include a variety of spacecraft equipped with specific instruments for various scientific and technological missions. These include communications satellites like Starlink; space stations such as the ISS; scientific satellites like the Hubble; Earth observation satellites from companies like Planet Labs, Umbra, and HawkEye 360; GPS; miniature CubeSats for education and research; and military/defense satellites.

Loading next visibility...
Identifier
40044, 2014-033AL
Orbit
SSO
Country
Flag of USUS
Related business
Manufacturer
NanoSatisfi
Mission
Operational Commercial Technology
Bus & Motor
CUBESAT 3U, Unknown motor
Mass
~4 kg wet, ~4 kg dry
Launch date (UTC)
2014-06-19 (12 years ago)
Launch vehicle
DNEPR
Launch site
Orenburg, Russia (OREN)
Object type
Payload
Rocket body
Debris
Shape & HBR
Box, 1.0 m
Radar Cross Section
0.093 m², Medium (>0.1 m² and < 1m²)

Expand to show TLE details & history
Last TLE update: 2 days ago

TLE from 2 days ago
0 LEMUR 1
1 40044U 14033AL  26171.39295448  .00001537  00000-0  18153-3 0  9991
2 40044  97.7881 321.1267 0049556  68.4036 292.2449 14.85256873645941
Epoch: 2026-06-20T09:25Z
TLE epoch observation values (Epoch: 2026-06-20T09:25:51.267Z)
Latitude
0.00002°
Longitude
-88.94514°
Altitude
602.841 km
Speed
7.565 km/s
True Right ascension
21h 24m 30s
True Declination
0° 00' 00"
Sunlit
Object was in full shadow at epoch
Visualization orbit readout
Latitude
Unknown
Longitude
Unknown
Altitude
Unknown
Speed
Unknown
Apparent Right ascension
Unknown
Apparent Declination
Unknown
Sunlit
N/A
Visualization observer readout
Local Sidereal Time
21:38:33
Azimuth
Unknown
Elevation
Unknown
Doppler factor
Unknown
Orbital elements
Apogee altitude
644.438 km
Perigee altitude
575.179 km
Semi-major axis
6,987.945 km
Eccentricity
0.00496
Inclination
97.7881°
RAAN
321.1267°
Arg. of periapsis
68.4036°
True anomaly
291.71807°
Mean anomaly
292.2449°
Eccentric anomaly
291.98161°
Mean motion
3.71551 °/min
Orbital period
96.89 mins
BSTAR
0.00018153
Loading maneuver chart data...
Computing Atmospheric mass density...
Loading historical data...
Loading historical data...
Loading historical data...
Loading historical data...
Loading historical data...
Loading historical data...
Loading historical data...

Documentation

Showing up to 5 results
|